This is the latest recevied weather packets stored in our database for station/object KC3HIX. If no packets are shown the sender has not sent any weather packets the latest 10 day(s).
| Time | Temp. | Humidity | Pressure | Rain* | Wind** | Luminosity | Snow |
|---|---|---|---|---|---|---|---|
| 1777738209 | 13.33° C | 52% | 1014.1 hPa | 0 mm | - | - | - |
| 1777737609 | 12.22° C | 51% | 1014.1 hPa | 0 mm | - | - | - |
| 1777734009 | 11.67° C | 46% | 1014.1 hPa | 0 mm | - | - | - |
| 1777730708 | 12.22° C | 49% | 1014.4 hPa | 0 mm | - | - | - |
| 1777730109 | 13.33° C | 49% | 1014.4 hPa | 0 mm | - | - | - |
| 1777728908 | 12.22° C | 56% | 1014.4 hPa | 0 mm | - | - | - |
| 1777728608 | 11.67° C | 59% | 1014.8 hPa | 0 mm | - | - | - |
| 1777728308 | 11.11° C | 60% | 1014.8 hPa | 0 mm | - | - | - |
| 1777725308 | 9.44° C | 73% | 1015.1 hPa | 0 mm | - | - | - |
| 1777725008 | 9.44° C | 68% | 1014.8 hPa | 0 mm | - | - | - |
| 1777721708 | 5.56° C | 99% | 1014.8 hPa | 0 mm | - | - | - |
| 1777719308 | 3.33° C | 99% | 1014.8 hPa | 0 mm | - | - | - |
| 1777718729 | 2.78° C | 99% | 1014.4 hPa | 0 mm | - | - | - |
| 1777717208 | 3.33° C | 99% | 1014.4 hPa | 0 mm | - | - | - |
| 1777716608 | 3.33° C | 99% | 1014.1 hPa | 0 mm | - | - | - |
| 1777715408 | 3.89° C | 98% | 1014.1 hPa | 0 mm | - | - | - |
| 1777707607 | 6.11° C | 94% | 1013 hPa | 1.27 mm | - | - | - |
| 1777706707 | 6.67° C | 95% | 1013 hPa | 2.03 mm | - | - | - |
| 1777706407 | 6.67° C | 95% | 1012.7 hPa | 2.54 mm | - | - | - |
| 1777705807 | 6.67° C | 95% | 1012.7 hPa | 3.3 mm | - | - | - |
| 1777704607 | 7.78° C | 95% | 1012.3 hPa | 2.54 mm | - | - | - |
| 1777704307 | 8.33° C | 98% | 1012 hPa | 2.29 mm | - | - | - |
| 1777703707 | 8.33° C | 98% | 1012 hPa | 1.78 mm | - | - | - |
| 1777701028 | 8.89° C | 98% | 1012 hPa | 0 mm | - | - | - |
| 1777700707 | 8.89° C | 98% | 1012 hPa | 0 mm | - | - | - |
* Rain latest hour (hover to see other rain measurements)
** Current wind speed in m/s (hover to see current wind gust speed)